Powrót do katalogu

HENAN-1

AktywnyNaukaPO
NORAD 53446·PAYLOAD·🇨🇳 China
Ta nazwa satelity nie została jeszcze potwierdzona przez oficjalne źródła.

Wystrzelony Aug 10, 2022 z Taiyuan Satellite Launch Center

Loading…

Następne Przeloty (najbliższe 24 godziny)

TLE

ŚwieżeSource: Space-Track

Epoka: Sep 14, 2026, 15:26 UTC

1 53446U 22098C   26257.64323713  .00148036  00000-0  65892-3 0  9999
2 53446  97.5737  35.9497 0000978 269.0620  91.0537 15.83911032228727

Śledź HENAN-1 w czasie rzeczywistym z AllMySat

Download on the App Store